Year,Month,Day,Hour,Minute,Value (Times are PST for windgust in km/hr)
2011,07,08,00,00,22.50
2011,07,08,00,01,19.30
2011,07,08,00,02,24.20
2011,07,08,00,03,8.10
2011,07,08,00,04,24.20
2011,07,08,00,05,20.90
2011,07,08,00,06,19.30
2011,07,08,00,07,17.70
2011,07,08,00,08,24.20
2011,07,08,00,09,22.50
2011,07,08,00,10,17.70
2011,07,08,00,11,20.90
2011,07,08,00,12,17.70
2011,07,08,00,13,22.50
2011,07,08,00,14,17.70
2011,07,08,00,15,25.70
2011,07,08,00,16,27.40
2011,07,08,00,17,24.20
2011,07,08,00,18,22.50
2011,07,08,00,19,16.10
2011,07,08,00,20,20.90
2011,07,08,00,21,19.30
2011,07,08,00,22,27.40
2011,07,08,00,23,19.30
2011,07,08,00,24,22.50
2011,07,08,00,25,19.30
2011,07,08,00,26,22.50
2011,07,08,00,27,20.90
2011,07,08,00,28,25.70
2011,07,08,00,29,22.50
2011,07,08,00,30,35.40
2011,07,08,00,31,32.20
2011,07,08,00,32,30.60
2011,07,08,00,33,29.00
2011,07,08,00,34,30.60
2011,07,08,00,35,25.70
2011,07,08,00,36,29.00
2011,07,08,00,37,27.40
2011,07,08,00,38,32.20
2011,07,08,00,39,29.00
2011,07,08,00,40,30.60
2011,07,08,00,41,27.40
2011,07,08,00,42,25.70
2011,07,08,00,43,24.20
2011,07,08,00,44,25.70
2011,07,08,00,45,27.40
2011,07,08,00,46,25.70
2011,07,08,00,47,20.90
2011,07,08,00,48,32.20
2011,07,08,00,49,27.40
2011,07,08,00,50,16.10
2011,07,08,00,51,24.20
2011,07,08,00,52,25.70
2011,07,08,00,53,32.20
2011,07,08,00,54,35.40
2011,07,08,00,55,32.20
2011,07,08,00,56,33.80
2011,07,08,00,57,29.00
2011,07,08,00,58,19.30
2011,07,08,00,59,29.00
2011,07,08,01,00,20.90
2011,07,08,01,01,40.20
2011,07,08,01,02,27.40
2011,07,08,01,03,32.20
2011,07,08,01,04,33.80
2011,07,08,01,05,25.70
2011,07,08,01,06,27.40
2011,07,08,01,07,24.20
2011,07,08,01,08,30.60
2011,07,08,01,09,30.60
2011,07,08,01,10,29.00
2011,07,08,01,11,29.00
2011,07,08,01,12,35.40
2011,07,08,01,13,30.60
2011,07,08,01,14,25.70
2011,07,08,01,15,29.00
2011,07,08,01,16,27.40
2011,07,08,01,17,24.20
2011,07,08,01,18,32.20
2011,07,08,01,19,29.00
2011,07,08,01,20,29.00
2011,07,08,01,21,25.70
2011,07,08,01,22,25.70
2011,07,08,01,23,27.40
2011,07,08,01,24,25.70
2011,07,08,01,25,33.80
2011,07,08,01,26,22.50
2011,07,08,01,27,20.90
2011,07,08,01,28,25.70
2011,07,08,01,29,29.00
2011,07,08,01,30,20.90
2011,07,08,01,31,25.70
2011,07,08,01,32,24.20
2011,07,08,01,33,24.20
2011,07,08,01,34,29.00
2011,07,08,01,35,19.30
2011,07,08,01,36,27.40
2011,07,08,01,37,20.90
2011,07,08,01,38,20.90
2011,07,08,01,39,22.50
2011,07,08,01,40,24.20
2011,07,08,01,41,29.00
2011,07,08,01,42,20.90
2011,07,08,01,43,25.70
2011,07,08,01,44,22.50
2011,07,08,01,45,25.70
2011,07,08,01,46,35.40
2011,07,08,01,47,27.40
2011,07,08,01,48,19.30
2011,07,08,01,49,22.50
2011,07,08,01,50,32.20
2011,07,08,01,51,30.60
2011,07,08,01,52,29.00
2011,07,08,01,53,17.70
2011,07,08,01,54,27.40
2011,07,08,01,55,25.70
2011,07,08,01,56,32.20
2011,07,08,01,57,19.30
2011,07,08,01,58,29.00
2011,07,08,01,59,20.90
2011,07,08,02,00,22.50
2011,07,08,02,01,20.90
2011,07,08,02,02,24.20
2011,07,08,02,03,22.50
2011,07,08,02,04,16.10
2011,07,08,02,05,19.30
2011,07,08,02,06,19.30
2011,07,08,02,07,22.50
2011,07,08,02,08,16.10
2011,07,08,02,09,22.50
2011,07,08,02,10,20.90
2011,07,08,02,11,19.30
2011,07,08,02,12,22.50
2011,07,08,02,13,17.70
2011,07,08,02,14,25.70
2011,07,08,02,15,17.70
2011,07,08,02,16,17.70
2011,07,08,02,17,9.60
2011,07,08,02,18,22.50
2011,07,08,02,19,22.50
2011,07,08,02,20,24.20
2011,07,08,02,21,24.20
2011,07,08,02,22,24.20
2011,07,08,02,23,19.30
2011,07,08,02,24,19.30
2011,07,08,02,25,20.90
2011,07,08,02,26,19.30
2011,07,08,02,27,19.30
2011,07,08,02,28,20.90
2011,07,08,02,29,19.30
2011,07,08,02,30,27.40
2011,07,08,02,31,14.50
2011,07,08,02,32,17.70
2011,07,08,02,33,12.90
2011,07,08,02,34,8.10
2011,07,08,02,35,19.30
2011,07,08,02,36,19.30
2011,07,08,02,37,11.30
2011,07,08,02,38,20.90
2011,07,08,02,39,24.20
2011,07,08,02,40,17.70
2011,07,08,02,41,17.70
2011,07,08,02,42,14.50
2011,07,08,02,43,17.70
2011,07,08,02,44,17.70
2011,07,08,02,45,17.70
2011,07,08,02,46,19.30
2011,07,08,02,47,17.70
2011,07,08,02,48,19.30
2011,07,08,02,49,12.90
2011,07,08,02,50,17.70
2011,07,08,02,51,19.30
2011,07,08,02,52,19.30
2011,07,08,02,53,17.70
2011,07,08,02,54,19.30
2011,07,08,02,55,20.90
2011,07,08,02,56,14.50
2011,07,08,02,57,16.10
2011,07,08,02,58,22.50
2011,07,08,02,59,14.50
2011,07,08,03,00,11.30
2011,07,08,03,01,11.30
2011,07,08,03,02,17.70
2011,07,08,03,03,16.10
2011,07,08,03,04,19.30
2011,07,08,03,05,19.30
2011,07,08,03,06,22.50
2011,07,08,03,07,17.70
2011,07,08,03,08,9.60
2011,07,08,03,09,11.30
2011,07,08,03,10,9.60
2011,07,08,03,11,6.40
2011,07,08,03,12,11.30
2011,07,08,03,13,12.90
2011,07,08,03,14,9.60
2011,07,08,03,15,8.10
2011,07,08,03,16,6.40
2011,07,08,03,17,12.90
2011,07,08,03,18,17.70
2011,07,08,03,19,17.70
2011,07,08,03,20,9.60
2011,07,08,03,21,9.60
2011,07,08,03,22,9.60
2011,07,08,03,23,9.60
2011,07,08,03,24,6.40
2011,07,08,03,25,16.10
2011,07,08,03,26,11.30
2011,07,08,03,27,11.30
2011,07,08,03,28,14.50
2011,07,08,03,29,11.30
2011,07,08,03,30,9.60
2011,07,08,03,31,11.30
2011,07,08,03,32,11.30
2011,07,08,03,33,9.60
2011,07,08,03,34,19.30
2011,07,08,03,35,17.70
2011,07,08,03,36,14.50
2011,07,08,03,37,11.30
2011,07,08,03,38,14.50
2011,07,08,03,39,11.30
2011,07,08,03,40,11.30
2011,07,08,03,41,17.70
2011,07,08,03,42,11.30
2011,07,08,03,43,11.30
2011,07,08,03,44,11.30
2011,07,08,03,45,8.10
2011,07,08,03,46,14.50
2011,07,08,03,47,9.60
2011,07,08,03,48,6.40
2011,07,08,03,49,11.30
2011,07,08,03,50,14.50
2011,07,08,03,51,14.50
2011,07,08,03,52,12.90
2011,07,08,03,53,16.10
2011,07,08,03,54,17.70
2011,07,08,03,55,20.90
2011,07,08,03,56,22.50
2011,07,08,03,57,17.70
2011,07,08,03,58,17.70
2011,07,08,03,59,17.70
2011,07,08,04,00,17.70
2011,07,08,04,01,17.70
2011,07,08,04,02,20.90
2011,07,08,04,03,16.10
2011,07,08,04,04,20.90
2011,07,08,04,05,20.90
2011,07,08,04,06,14.50
2011,07,08,04,07,19.30
2011,07,08,04,08,16.10
2011,07,08,04,09,19.30
2011,07,08,04,10,24.20
2011,07,08,04,11,20.90
2011,07,08,04,12,19.30
2011,07,08,04,13,20.90
2011,07,08,04,14,17.70
2011,07,08,04,15,25.70
2011,07,08,04,16,20.90
2011,07,08,04,17,22.50
2011,07,08,04,18,22.50
2011,07,08,04,19,22.50
2011,07,08,04,20,27.40
2011,07,08,04,21,17.70
2011,07,08,04,22,17.70
2011,07,08,04,23,24.20
2011,07,08,04,24,24.20
2011,07,08,04,25,20.90
2011,07,08,04,26,20.90
2011,07,08,04,27,24.20
2011,07,08,04,28,20.90
2011,07,08,04,29,17.70
2011,07,08,04,30,16.10
2011,07,08,04,31,22.50
2011,07,08,04,32,24.20
2011,07,08,04,33,25.70
2011,07,08,04,34,19.30
2011,07,08,04,35,24.20
2011,07,08,04,36,19.30
2011,07,08,04,37,16.10
2011,07,08,04,38,20.90
2011,07,08,04,39,19.30
2011,07,08,04,40,20.90
2011,07,08,04,41,25.70
2011,07,08,04,42,30.60
2011,07,08,04,43,25.70
2011,07,08,04,44,25.70
2011,07,08,04,45,24.20
2011,07,08,04,46,19.30
2011,07,08,04,47,17.70
2011,07,08,04,48,17.70
2011,07,08,04,49,19.30
2011,07,08,04,50,24.20
2011,07,08,04,51,22.50
2011,07,08,04,52,11.30
2011,07,08,04,53,22.50
2011,07,08,04,54,14.50
2011,07,08,04,55,24.20
2011,07,08,04,56,25.70
2011,07,08,04,57,14.50
2011,07,08,04,58,9.60
2011,07,08,04,59,14.50
2011,07,08,05,00,22.50
2011,07,08,05,01,27.40
2011,07,08,05,02,25.70
2011,07,08,05,03,24.20
2011,07,08,05,04,20.90
2011,07,08,05,05,22.50
2011,07,08,05,06,25.70
2011,07,08,05,07,30.60
2011,07,08,05,08,20.90
2011,07,08,05,09,24.20
2011,07,08,05,10,25.70
2011,07,08,05,11,24.20
2011,07,08,05,12,25.70
2011,07,08,05,13,20.90
2011,07,08,05,14,25.70
2011,07,08,05,15,22.50
2011,07,08,05,16,29.00
2011,07,08,05,17,16.10
2011,07,08,05,18,24.20
2011,07,08,05,19,20.90
2011,07,08,05,20,22.50
2011,07,08,05,21,32.20
2011,07,08,05,22,19.30
2011,07,08,05,23,25.70
2011,07,08,05,24,24.20
2011,07,08,05,25,33.80
2011,07,08,05,26,24.20
2011,07,08,05,27,25.70
2011,07,08,05,28,29.00
2011,07,08,05,29,22.50
2011,07,08,05,30,27.40
2011,07,08,05,31,27.40
2011,07,08,05,32,30.60
2011,07,08,05,33,29.00
2011,07,08,05,34,25.70
2011,07,08,05,35,29.00
2011,07,08,05,36,29.00
2011,07,08,05,37,24.20
2011,07,08,05,38,32.20
2011,07,08,05,39,32.20
2011,07,08,05,40,30.60
2011,07,08,05,41,29.00
2011,07,08,05,42,33.80
2011,07,08,05,43,30.60
2011,07,08,05,44,24.20
2011,07,08,05,45,30.60
2011,07,08,05,46,32.20
2011,07,08,05,47,30.60
2011,07,08,05,48,38.60
2011,07,08,05,49,35.40
2011,07,08,05,50,29.00
2011,07,08,05,51,30.60
2011,07,08,05,52,29.00
2011,07,08,05,53,32.20
2011,07,08,05,54,27.40
2011,07,08,05,55,29.00
2011,07,08,05,56,19.30
2011,07,08,05,57,35.40
2011,07,08,05,58,17.70
2011,07,08,05,59,24.20
2011,07,08,06,00,29.00
2011,07,08,06,01,29.00
2011,07,08,06,02,27.40
2011,07,08,06,03,22.50
2011,07,08,06,04,19.30
2011,07,08,06,05,22.50
2011,07,08,06,06,24.20
2011,07,08,06,07,20.90
2011,07,08,06,08,24.20
2011,07,08,06,09,22.50
2011,07,08,06,10,24.20
2011,07,08,06,11,22.50
2011,07,08,06,12,17.70
2011,07,08,06,13,24.20
2011,07,08,06,14,25.70
2011,07,08,06,15,25.70
2011,07,08,06,16,27.40
2011,07,08,06,17,25.70
2011,07,08,06,18,19.30
2011,07,08,06,19,25.70
2011,07,08,06,20,27.40
2011,07,08,06,21,20.90
2011,07,08,06,22,22.50
2011,07,08,06,23,19.30
2011,07,08,06,24,19.30
2011,07,08,06,25,25.70
2011,07,08,06,26,20.90
2011,07,08,06,27,25.70
2011,07,08,06,28,20.90
2011,07,08,06,29,25.70
2011,07,08,06,30,22.50
2011,07,08,06,31,20.90
2011,07,08,06,32,17.70
2011,07,08,06,33,22.50
2011,07,08,06,34,19.30
2011,07,08,06,35,17.70
2011,07,08,06,36,17.70
2011,07,08,06,37,22.50
2011,07,08,06,38,20.90
2011,07,08,06,39,24.20
2011,07,08,06,40,22.50
2011,07,08,06,41,20.90
2011,07,08,06,42,19.30
2011,07,08,06,43,17.70
2011,07,08,06,44,19.30
2011,07,08,06,45,20.90
2011,07,08,06,46,20.90
2011,07,08,06,47,20.90
2011,07,08,06,48,12.90
2011,07,08,06,49,19.30
2011,07,08,06,50,16.10
2011,07,08,06,51,14.50
2011,07,08,06,52,19.30
2011,07,08,06,53,19.30
2011,07,08,06,54,14.50
2011,07,08,06,55,16.10
2011,07,08,06,56,19.30
2011,07,08,06,57,17.70
2011,07,08,06,58,16.10
2011,07,08,06,59,17.70
2011,07,08,07,00,16.10
2011,07,08,07,01,12.90
2011,07,08,07,02,16.10
2011,07,08,07,03,14.50
2011,07,08,07,04,6.40
2011,07,08,07,05,4.80
2011,07,08,07,06,9.60
2011,07,08,07,07,8.10
2011,07,08,07,08,8.10
2011,07,08,07,09,8.10
2011,07,08,07,10,6.40
2011,07,08,07,11,11.30
2011,07,08,07,12,12.90
2011,07,08,07,13,6.40
2011,07,08,07,14,8.10
2011,07,08,07,15,9.60
2011,07,08,07,16,8.10
2011,07,08,07,17,9.60
2011,07,08,07,18,9.60
2011,07,08,07,19,11.30
2011,07,08,07,20,9.60
2011,07,08,07,21,8.10
2011,07,08,07,22,6.40
2011,07,08,07,23,6.40
2011,07,08,07,24,11.30
2011,07,08,07,25,9.60
2011,07,08,07,26,8.10
2011,07,08,07,27,6.40
2011,07,08,07,28,12.90
2011,07,08,07,29,9.60
2011,07,08,07,30,9.60
2011,07,08,07,31,11.30
2011,07,08,07,32,16.10
2011,07,08,07,33,8.10
2011,07,08,07,34,8.10
2011,07,08,07,35,11.30
2011,07,08,07,36,11.30
2011,07,08,07,37,14.50
2011,07,08,07,38,8.10
2011,07,08,07,39,12.90
2011,07,08,07,40,11.30
2011,07,08,07,41,11.30
2011,07,08,07,42,11.30
2011,07,08,07,43,9.60
2011,07,08,07,44,14.50
2011,07,08,07,45,11.30
2011,07,08,07,46,9.60
2011,07,08,07,47,11.30
2011,07,08,07,48,9.60
2011,07,08,07,49,9.60
2011,07,08,07,50,8.10
2011,07,08,07,51,9.60
2011,07,08,07,52,8.10
2011,07,08,07,53,9.60
2011,07,08,07,54,8.10
2011,07,08,07,55,8.10
2011,07,08,07,56,9.60
2011,07,08,07,57,11.30
2011,07,08,07,58,11.30
2011,07,08,07,59,11.30
2011,07,08,08,00,6.40
2011,07,08,08,01,9.60
2011,07,08,08,02,9.60
2011,07,08,08,03,14.50
2011,07,08,08,04,11.30
2011,07,08,08,05,8.10
2011,07,08,08,06,9.60
2011,07,08,08,07,9.60
2011,07,08,08,08,9.60
2011,07,08,08,09,9.60
2011,07,08,08,10,11.30
2011,07,08,08,11,9.60
2011,07,08,08,12,8.10
2011,07,08,08,13,6.40
2011,07,08,08,14,8.10
2011,07,08,08,15,9.60
2011,07,08,08,16,9.60
2011,07,08,08,17,4.80
2011,07,08,08,18,12.90
2011,07,08,08,19,9.60
2011,07,08,08,20,9.60
2011,07,08,08,21,12.90
2011,07,08,08,22,14.50
2011,07,08,08,23,9.60
2011,07,08,08,24,11.30
2011,07,08,08,25,11.30
2011,07,08,08,26,8.10
2011,07,08,08,27,8.10
2011,07,08,08,28,8.10
2011,07,08,08,29,9.60
2011,07,08,08,30,9.60
2011,07,08,08,31,14.50
2011,07,08,08,32,17.70
2011,07,08,08,33,16.10
2011,07,08,08,34,11.30
2011,07,08,08,35,11.30
2011,07,08,08,36,16.10
2011,07,08,08,37,19.30
2011,07,08,08,38,19.30
2011,07,08,08,39,19.30
2011,07,08,08,40,17.70
2011,07,08,08,41,16.10
2011,07,08,08,42,16.10
2011,07,08,08,43,17.70
2011,07,08,08,44,17.70
2011,07,08,08,45,14.50
2011,07,08,08,46,17.70
2011,07,08,08,47,16.10
2011,07,08,08,48,16.10
2011,07,08,08,49,14.50
2011,07,08,08,50,16.10
2011,07,08,08,51,16.10
2011,07,08,08,52,14.50
2011,07,08,08,53,11.30
2011,07,08,08,54,17.70
2011,07,08,08,55,17.70
2011,07,08,08,56,16.10
2011,07,08,08,57,16.10
2011,07,08,08,58,16.10
2011,07,08,08,59,11.30
2011,07,08,09,00,16.10
2011,07,08,09,01,9.60
2011,07,08,09,02,9.60
2011,07,08,09,03,16.10
2011,07,08,09,04,11.30
2011,07,08,09,05,11.30
2011,07,08,09,06,9.60
2011,07,08,09,07,11.30
2011,07,08,09,08,16.10
2011,07,08,09,09,14.50
2011,07,08,09,10,16.10
2011,07,08,09,11,19.30
2011,07,08,09,12,16.10
2011,07,08,09,13,17.70
2011,07,08,09,14,11.30
2011,07,08,09,15,19.30
2011,07,08,09,16,22.50
2011,07,08,09,17,24.20
2011,07,08,09,18,20.90
2011,07,08,09,19,16.10
2011,07,08,09,20,22.50
2011,07,08,09,21,22.50
2011,07,08,09,22,19.30
2011,07,08,09,23,16.10
2011,07,08,09,24,14.50
2011,07,08,09,25,20.90
2011,07,08,09,26,17.70
2011,07,08,09,27,14.50
2011,07,08,09,28,16.10
2011,07,08,09,29,17.70
2011,07,08,09,30,12.90
2011,07,08,09,31,16.10
2011,07,08,09,32,17.70
2011,07,08,09,33,20.90
2011,07,08,09,34,17.70
2011,07,08,09,35,20.90
2011,07,08,09,36,16.10
2011,07,08,09,37,24.20
2011,07,08,09,38,17.70
2011,07,08,09,39,17.70
2011,07,08,09,40,17.70
2011,07,08,09,41,17.70
2011,07,08,09,42,25.70
2011,07,08,09,43,22.50
2011,07,08,09,44,24.20
2011,07,08,09,45,24.20
2011,07,08,09,46,25.70
2011,07,08,09,47,20.90
2011,07,08,09,48,19.30
2011,07,08,09,49,25.70
2011,07,08,09,50,22.50
2011,07,08,09,51,27.40
2011,07,08,09,52,20.90
2011,07,08,09,53,20.90
2011,07,08,09,54,27.40
2011,07,08,09,55,25.70
2011,07,08,09,56,24.20
2011,07,08,09,57,20.90
2011,07,08,09,58,16.10
2011,07,08,09,59,20.90
2011,07,08,10,00,27.40
2011,07,08,10,01,19.30
2011,07,08,10,02,11.30
2011,07,08,10,03,14.50
2011,07,08,10,04,14.50
2011,07,08,10,05,25.70
2011,07,08,10,06,16.10
2011,07,08,10,07,20.90
2011,07,08,10,08,17.70
2011,07,08,10,09,17.70
2011,07,08,10,10,17.70
2011,07,08,10,11,19.30
2011,07,08,10,12,17.70
2011,07,08,10,13,22.50
2011,07,08,10,14,25.70
2011,07,08,10,15,27.40
2011,07,08,10,16,19.30
2011,07,08,10,17,22.50
2011,07,08,10,18,24.20
2011,07,08,10,19,22.50
2011,07,08,10,20,27.40
2011,07,08,10,21,30.60
2011,07,08,10,22,24.20
2011,07,08,10,23,22.50
2011,07,08,10,24,24.20
2011,07,08,10,25,24.20
2011,07,08,10,26,29.00
2011,07,08,10,27,29.00
2011,07,08,10,28,22.50
2011,07,08,10,29,24.20
2011,07,08,10,30,16.10
2011,07,08,10,31,25.70
2011,07,08,10,32,25.70
2011,07,08,10,33,19.30
2011,07,08,10,34,25.70
2011,07,08,10,35,25.70
2011,07,08,10,36,24.20
2011,07,08,10,37,25.70
2011,07,08,10,38,27.40
2011,07,08,10,39,30.60
2011,07,08,10,40,24.20
2011,07,08,10,41,25.70
2011,07,08,10,42,20.90
2011,07,08,10,43,25.70
2011,07,08,10,44,25.70
2011,07,08,10,45,19.30
2011,07,08,10,46,24.20
2011,07,08,10,47,27.40
2011,07,08,10,48,20.90
2011,07,08,10,49,19.30
2011,07,08,10,50,29.00
2011,07,08,10,51,16.10
2011,07,08,10,52,25.70
2011,07,08,10,53,16.10
2011,07,08,10,54,16.10
2011,07,08,10,55,16.10
2011,07,08,10,56,29.00
2011,07,08,10,57,20.90
2011,07,08,10,58,25.70
2011,07,08,10,59,27.40
2011,07,08,11,00,25.70
2011,07,08,11,01,24.20
2011,07,08,11,02,25.70
2011,07,08,11,03,29.00
2011,07,08,11,04,22.50
2011,07,08,11,05,29.00
2011,07,08,11,06,30.60
2011,07,08,11,07,25.70
2011,07,08,11,08,17.70
2011,07,08,11,09,20.90
2011,07,08,11,10,17.70
2011,07,08,11,11,20.90
2011,07,08,11,12,29.00
2011,07,08,11,13,22.50
2011,07,08,11,14,20.90
2011,07,08,11,15,16.10
2011,07,08,11,16,27.40
2011,07,08,11,17,20.90
2011,07,08,11,18,22.50
2011,07,08,11,19,19.30
2011,07,08,11,20,20.90
2011,07,08,11,21,22.50
2011,07,08,11,22,25.70
2011,07,08,11,23,29.00
2011,07,08,11,24,20.90
2011,07,08,11,25,20.90
2011,07,08,11,26,19.30
2011,07,08,11,27,20.90
2011,07,08,11,28,25.70
2011,07,08,11,29,14.50
2011,07,08,11,30,22.50
2011,07,08,11,31,22.50
2011,07,08,11,32,24.20
2011,07,08,11,33,24.20
2011,07,08,11,34,24.20
2011,07,08,11,35,17.70
2011,07,08,11,36,16.10
2011,07,08,11,37,25.70
2011,07,08,11,38,24.20
2011,07,08,11,39,20.90
2011,07,08,11,40,20.90
2011,07,08,11,41,17.70
2011,07,08,11,42,25.70
2011,07,08,11,43,19.30
2011,07,08,11,44,9.60
2011,07,08,11,45,22.50
2011,07,08,11,46,27.40
2011,07,08,11,47,19.30
2011,07,08,11,48,22.50
2011,07,08,11,49,17.70
2011,07,08,11,50,17.70
2011,07,08,11,51,14.50
2011,07,08,11,52,25.70
2011,07,08,11,53,27.40
2011,07,08,11,54,27.40
2011,07,08,11,55,19.30
2011,07,08,11,56,20.90
2011,07,08,11,57,22.50
2011,07,08,11,58,20.90
2011,07,08,11,59,19.30
2011,07,08,12,00,19.30
2011,07,08,12,01,19.30
2011,07,08,12,02,24.20
2011,07,08,12,03,12.90
2011,07,08,12,04,17.70
2011,07,08,12,05,24.20
2011,07,08,12,06,22.50
2011,07,08,12,07,22.50
2011,07,08,12,08,27.40
2011,07,08,12,09,25.70
2011,07,08,12,10,22.50
2011,07,08,12,11,19.30
2011,07,08,12,12,27.40
2011,07,08,12,13,29.00
2011,07,08,12,14,25.70
2011,07,08,12,15,16.10
2011,07,08,12,16,24.20
2011,07,08,12,17,22.50
2011,07,08,12,18,27.40
2011,07,08,12,19,30.60
2011,07,08,12,20,19.30
2011,07,08,12,21,11.30
2011,07,08,12,22,19.30
2011,07,08,12,23,11.30
2011,07,08,12,24,22.50
2011,07,08,12,25,24.20
2011,07,08,12,26,17.70
2011,07,08,12,27,19.30
2011,07,08,12,28,22.50
2011,07,08,12,29,25.70
2011,07,08,12,30,30.60
2011,07,08,12,31,22.50
2011,07,08,12,32,22.50
2011,07,08,12,33,22.50
2011,07,08,12,34,32.20
2011,07,08,12,35,19.30
2011,07,08,12,36,24.20
2011,07,08,12,37,25.70
2011,07,08,12,38,22.50
2011,07,08,12,39,17.70
2011,07,08,12,40,20.90
2011,07,08,12,41,24.20
2011,07,08,12,42,25.70
2011,07,08,12,43,22.50
2011,07,08,12,44,29.00
2011,07,08,12,45,22.50
2011,07,08,12,46,27.40
2011,07,08,12,47,27.40
2011,07,08,12,48,20.90
2011,07,08,12,49,24.20
2011,07,08,12,50,29.00
2011,07,08,12,51,20.90
2011,07,08,12,52,22.50
2011,07,08,12,53,24.20
2011,07,08,12,54,25.70
2011,07,08,12,55,24.20
2011,07,08,12,56,29.00
2011,07,08,12,57,22.50
2011,07,08,12,58,20.90
2011,07,08,12,59,24.20
2011,07,08,13,00,25.70
2011,07,08,13,01,20.90
2011,07,08,13,02,24.20
2011,07,08,13,03,24.20
2011,07,08,13,04,22.50
2011,07,08,13,05,27.40
2011,07,08,13,06,24.20
2011,07,08,13,07,22.50
2011,07,08,13,08,24.20
2011,07,08,13,09,19.30
2011,07,08,13,10,29.00
2011,07,08,13,11,19.30
2011,07,08,13,12,25.70
2011,07,08,13,13,24.20
2011,07,08,13,14,27.40
2011,07,08,13,15,27.40
2011,07,08,13,16,32.20
2011,07,08,13,17,30.60
2011,07,08,13,18,29.00
2011,07,08,13,19,19.30
2011,07,08,13,20,14.50
2011,07,08,13,21,19.30
2011,07,08,13,22,20.90
2011,07,08,13,23,17.70
2011,07,08,13,24,20.90
2011,07,08,13,25,22.50
2011,07,08,13,26,17.70
2011,07,08,13,27,24.20
2011,07,08,13,28,27.40
2011,07,08,13,29,33.80
2011,07,08,13,30,30.60
2011,07,08,13,31,25.70
2011,07,08,13,32,25.70
2011,07,08,13,33,22.50
2011,07,08,13,34,20.90
2011,07,08,13,35,19.30
2011,07,08,13,36,29.00
2011,07,08,13,37,27.40
2011,07,08,13,38,17.70
2011,07,08,13,39,19.30
2011,07,08,13,40,11.30
2011,07,08,13,41,17.70
2011,07,08,13,42,22.50
2011,07,08,13,43,25.70
2011,07,08,13,44,20.90
2011,07,08,13,45,25.70
2011,07,08,13,46,24.20
2011,07,08,13,47,24.20
2011,07,08,13,48,25.70
2011,07,08,13,49,24.20
2011,07,08,13,50,24.20
2011,07,08,13,51,25.70
2011,07,08,13,52,24.20
2011,07,08,13,53,24.20
2011,07,08,13,54,24.20
2011,07,08,13,55,16.10
2011,07,08,13,56,17.70
2011,07,08,13,57,25.70
2011,07,08,13,58,22.50
2011,07,08,13,59,20.90
2011,07,08,14,00,8.10
2011,07,08,14,01,20.90
2011,07,08,14,02,22.50
2011,07,08,14,03,20.90
2011,07,08,14,04,24.20
2011,07,08,14,05,27.40
2011,07,08,14,06,27.40
2011,07,08,14,07,29.00
2011,07,08,14,08,20.90
2011,07,08,14,09,30.60
2011,07,08,14,10,30.60
2011,07,08,14,11,20.90
2011,07,08,14,12,35.40
2011,07,08,14,13,25.70
2011,07,08,14,14,27.40
2011,07,08,14,15,20.90
2011,07,08,14,16,24.20
2011,07,08,14,17,19.30
2011,07,08,14,18,25.70
2011,07,08,14,19,20.90
2011,07,08,14,20,27.40
2011,07,08,14,21,29.00
2011,07,08,14,22,20.90
2011,07,08,14,23,29.00
2011,07,08,14,24,29.00
2011,07,08,14,25,30.60
2011,07,08,14,26,30.60
2011,07,08,14,27,24.20
2011,07,08,14,28,33.80
2011,07,08,14,29,30.60
2011,07,08,14,30,25.70
2011,07,08,14,31,27.40
2011,07,08,14,32,27.40
2011,07,08,14,33,25.70
2011,07,08,14,34,24.20
2011,07,08,14,35,25.70
2011,07,08,14,36,30.60
2011,07,08,14,37,22.50
2011,07,08,14,38,27.40
2011,07,08,14,39,19.30
2011,07,08,14,40,17.70
2011,07,08,14,41,19.30
2011,07,08,14,42,20.90
2011,07,08,14,43,17.70
2011,07,08,14,44,17.70
2011,07,08,14,45,24.20
2011,07,08,14,46,29.00
2011,07,08,14,47,29.00
2011,07,08,14,48,14.50
2011,07,08,14,49,19.30
2011,07,08,14,50,17.70
2011,07,08,14,51,29.00
2011,07,08,14,52,29.00
2011,07,08,14,53,32.20
2011,07,08,14,54,32.20
2011,07,08,14,55,22.50
2011,07,08,14,56,25.70
2011,07,08,14,57,24.20
2011,07,08,14,58,22.50
2011,07,08,14,59,20.90
2011,07,08,15,00,27.40
2011,07,08,15,01,20.90
2011,07,08,15,02,22.50
2011,07,08,15,03,29.00
2011,07,08,15,04,27.40
2011,07,08,15,05,27.40
2011,07,08,15,06,27.40
2011,07,08,15,07,30.60
2011,07,08,15,08,32.20
2011,07,08,15,09,27.40
2011,07,08,15,10,30.60
2011,07,08,15,11,29.00
2011,07,08,15,12,22.50
2011,07,08,15,13,25.70
2011,07,08,15,14,27.40
2011,07,08,15,15,24.20
2011,07,08,15,16,27.40
2011,07,08,15,17,25.70
2011,07,08,15,18,30.60
2011,07,08,15,19,27.40
2011,07,08,15,20,30.60
2011,07,08,15,21,25.70
2011,07,08,15,22,24.20
2011,07,08,15,23,32.20
2011,07,08,15,24,24.20
2011,07,08,15,25,24.20
2011,07,08,15,26,22.50
2011,07,08,15,27,32.20
2011,07,08,15,28,24.20
2011,07,08,15,29,24.20
2011,07,08,15,30,22.50
2011,07,08,15,31,33.80
2011,07,08,15,32,29.00
2011,07,08,15,33,25.70
2011,07,08,15,34,27.40
2011,07,08,15,35,24.20
2011,07,08,15,36,25.70
2011,07,08,15,37,32.20
2011,07,08,15,38,27.40
2011,07,08,15,39,30.60
2011,07,08,15,40,37.00
2011,07,08,15,41,32.20
2011,07,08,15,42,37.00
2011,07,08,15,43,25.70
2011,07,08,15,44,29.00
2011,07,08,15,45,25.70
2011,07,08,15,46,29.00
2011,07,08,15,47,29.00
2011,07,08,15,48,32.20
2011,07,08,15,49,29.00
2011,07,08,15,50,27.40
2011,07,08,15,51,30.60
2011,07,08,15,52,30.60
2011,07,08,15,53,29.00
2011,07,08,15,54,25.70
2011,07,08,15,55,25.70
2011,07,08,15,56,20.90
2011,07,08,15,57,27.40
2011,07,08,15,58,25.70
2011,07,08,15,59,22.50
2011,07,08,16,00,32.20
2011,07,08,16,01,29.00
2011,07,08,16,02,25.70
2011,07,08,16,03,30.60
2011,07,08,16,04,29.00
2011,07,08,16,05,24.20
2011,07,08,16,06,25.70
2011,07,08,16,07,29.00
2011,07,08,16,08,24.20
2011,07,08,16,09,24.20
2011,07,08,16,10,24.20
2011,07,08,16,11,24.20
2011,07,08,16,12,30.60
2011,07,08,16,13,25.70
2011,07,08,16,14,30.60
2011,07,08,16,15,29.00
2011,07,08,16,16,27.40
2011,07,08,16,17,29.00
2011,07,08,16,18,32.20
2011,07,08,16,19,27.40
2011,07,08,16,20,27.40
2011,07,08,16,21,29.00
2011,07,08,16,22,27.40
2011,07,08,16,23,24.20
2011,07,08,16,24,30.60
2011,07,08,16,25,30.60
2011,07,08,16,26,24.20
2011,07,08,16,27,22.50
2011,07,08,16,28,35.40
2011,07,08,16,29,27.40
2011,07,08,16,30,32.20
2011,07,08,16,31,30.60
2011,07,08,16,32,27.40
2011,07,08,16,33,24.20
2011,07,08,16,34,32.20
2011,07,08,16,35,25.70
2011,07,08,16,36,30.60
2011,07,08,16,37,27.40
2011,07,08,16,38,27.40
2011,07,08,16,39,29.00
2011,07,08,16,40,29.00
2011,07,08,16,41,22.50
2011,07,08,16,42,22.50
2011,07,08,16,43,25.70
2011,07,08,16,44,27.40
2011,07,08,16,45,24.20
2011,07,08,16,46,27.40
2011,07,08,16,47,33.80
2011,07,08,16,48,32.20
2011,07,08,16,49,32.20
2011,07,08,16,50,25.70
2011,07,08,16,51,27.40
2011,07,08,16,52,22.50
2011,07,08,16,53,24.20
2011,07,08,16,54,19.30
2011,07,08,16,55,20.90
2011,07,08,16,56,22.50
2011,07,08,16,57,17.70
2011,07,08,16,58,22.50
2011,07,08,16,59,33.80
2011,07,08,17,00,29.00
2011,07,08,17,01,27.40
2011,07,08,17,02,24.20
2011,07,08,17,03,32.20
2011,07,08,17,04,27.40
2011,07,08,17,05,22.50
2011,07,08,17,06,25.70
2011,07,08,17,07,29.00
2011,07,08,17,08,20.90
2011,07,08,17,09,25.70
2011,07,08,17,10,19.30
2011,07,08,17,11,30.60
2011,07,08,17,12,19.30
2011,07,08,17,13,22.50
2011,07,08,17,14,16.10
2011,07,08,17,15,19.30
2011,07,08,17,16,19.30
2011,07,08,17,17,20.90
2011,07,08,17,18,20.90
2011,07,08,17,19,17.70
2011,07,08,17,20,25.70
2011,07,08,17,21,20.90
2011,07,08,17,22,14.50
2011,07,08,17,23,24.20